#timestamp,LO_Frequency,Hit,StdDev 
1545634815.2,286047003.1,N
1545634835.0,286047004.0,N
1545634835.9,286047004.0,N
1545634855.8,286047001.9,N
1545634875.6,286047003.9,N
1545634895.5,286047000.1,N
1545634915.3,286047002.6,N
1545634935.1,286047005.3,Y
1545634955.9,286047001.8,P
1545634975.7,286047002.3,P
1545634995.6,286047002.0,P
1545635015.4,286047000.9,N
1545635035.2,286047000.4,N
1545635055.1,286046999.1,N
1545635056.0,286046999.1,N
1545635075.8,286046999.2,N
1545635095.6,286046997.1,N
1545635115.5,286046997.5,N
1545635135.3,286046997.5,N
1545635155.2,286046997.5,N
1545635175.9,286046997.3,N
1545635195.7,286046997.1,N
1545635215.6,286046995.4,N
1545635235.4,286046993.5,Y
1545635255.3,286046991.8,P
1545635275.1,286046994.6,N
1545635276.0,286046994.6,N
1545635295.8,286046994.5,N
1545635315.7,286046994.1,N
1545635335.5,286046994.2,N
1545635355.3,286046996.1,N
1545635375.2,286046994.3,N
1545635395.0,286046992.3,Y
1545635395.9,286046992.3,P
1545635415.8,286046999.3,N
1545635435.6,286046999.6,N
1545635455.4,286046999.1,N
1545635475.3,286046998.5,N
1545635495.1,286046999.6,N
1545635515.9,286046997.0,N
1545635535.7,286046998.9,N
1545635555.5,286046996.6,N
1545635575.4,286046997.2,N
1545635595.2,286046997.4,N
1545635615.0,286046997.1,N
1545635615.9,286046997.1,N
1545635635.8,286046999.6,N
1545635655.6,286046998.3,N
1545635675.5,286046998.7,N
1545635695.3,286046996.7,N
1545635715.1,286046996.7,N
1545635735.9,286046997.4,N
1545635755.7,286046997.8,N
1545635775.5,286046997.8,N
1545635795.4,286046997.4,N
1545635815.2,286046995.8,N
1545635835.1,286046996.1,N
1545635836.0,286046996.1,N
1545635855.8,286046995.9,N
1545635875.6,286046996.4,N
1545635895.5,286046993.4,Y
1545635915.3,286046997.3,P
1545635935.2,286046996.7,P
1545635955.9,286046997.1,P
1545635975.7,286046996.8,Y
1545635995.6,286047002.1,P
1545636015.4,286047001.1,N
1545636035.2,286047002.2,N
1545636055.1,286047002.0,N
1545636056.0,286047002.0,N
1545636075.8,286046999.8,N
1545636095.7,286047002.0,N
1545636115.5,286047002.5,N
1545636135.3,286047000.1,N
1545636155.2,286047004.2,N
1545636175.0,286047004.4,N
1545636175.9,286047004.4,N
1545636195.8,286047005.5,N
1545636215.6,286047004.9,N
1545636235.4,286047005.1,N
1545636255.3,286047005.5,N
1545636275.1,286047005.9,N
1545636295.8,286047005.5,N
1545636315.7,286047004.8,N
1545636335.5,286047009.1,Y
1545636355.4,286047001.7,P
1545636375.2,286047005.5,P
1545636395.0,286047003.8,N
1545636395.9,286047003.8,N
1545636415.8,286047002.5,N
1545636435.6,286047002.7,N
1545636455.4,286047000.7,N
1545636475.3,286047002.8,N
1545636495.1,286046998.2,N
1545636515.9,286047000.9,N
1545636535.7,286046999.2,N
1545636555.5,286046999.6,N
1545636575.4,286046998.8,N
1545636595.2,286046999.6,N
1545636615.1,286046996.6,N
1545636616.0,286046996.6,N
1545636635.8,286046999.1,N
1545636655.6,286046997.6,N
1545636675.5,286046997.5,N
1545636695.3,286046997.9,N
1545636715.1,286046998.0,N
1545636735.9,286046997.6,N
1545636755.7,286046996.9,N
1545636775.6,286046997.8,N
1545636795.4,286046996.8,N
1545636815.2,286046997.7,N
1545636835.1,286046998.9,N
1545636836.0,286046998.9,N
1545636855.8,286046996.8,N
1545636875.6,286046999.6,N
1545636895.5,286046999.4,N
1545636915.3,286046998.1,N
1545636935.2,286046998.5,N
1545636955.9,286046998.4,N
1545636975.7,286046999.3,N
1545636995.6,286046996.9,N
1545637015.4,286046999.6,N
1545637035.2,286046999.4,N
1545637055.1,286047001.6,N
1545637056.0,286047001.6,N
1545637075.8,286047003.6,N
1545637095.7,286047002.3,N
1545637115.5,286047001.6,N
1545637135.3,286047001.4,N
1545637155.2,286047002.7,N
1545637175.0,286047000.0,N
1545637175.9,286047000.0,N
1545637195.8,286047003.2,N
1545637215.6,286047003.6,N
1545637235.4,286047003.9,N
1545637255.3,286047004.1,N
1545637275.1,286047003.8,N
1545637295.8,286047006.0,N
1545637315.7,286047007.0,N
1545637335.5,286047006.4,N
1545637355.4,286047007.3,N
1545637375.2,286047006.8,N
1545637395.0,286047009.2,Y
1545637395.9,286047009.2,P
1545637415.8,286047007.3,N
1545637435.6,286047007.0,N
1545637455.5,286047006.5,N
1545637475.3,286047006.2,N
1545637495.1,286047008.6,Y
1545637515.9,286047002.8,P
1545637535.7,286047002.7,N
1545637555.5,286047004.0,N
1545637575.4,286047004.4,N
1545637595.2,286047004.2,Y
1545637615.1,286046998.5,P
1545637616.0,286046998.5,N
1545637635.8,286046998.7,N
1545637655.6,286047001.2,N
1545637675.5,286046998.5,N
1545637695.3,286046998.3,N
1545637715.2,286047001.2,N
1545637735.9,286047001.1,N
1545637755.7,286047000.3,N
1545637775.6,286047002.6,N
1545637795.4,286047001.8,N
1545637815.2,286047006.0,Y
1545637835.1,286047004.3,P
1545637836.0,286047004.3,N
1545637855.8,286047001.5,N
1545637875.7,286047002.1,N
1545637895.5,286047002.2,N
1545637915.3,286047002.0,N
1545637935.2,286047004.2,Y
1545637955.0,286047002.7,P
1545637955.9,286047002.7,P
1545637975.8,286047002.5,P
1545637995.6,286046999.7,N
1545638015.4,286047000.3,N
1545638035.3,286046998.1,N
1545638055.1,286046998.8,N
1545638075.8,286046996.7,N
1545638095.7,286046998.6,N
1545638115.5,286046998.8,N
1545638135.4,286046998.5,N
1545638155.2,286046996.7,N
1545638175.0,286046996.9,N
1545638175.9,286046996.9,N
1545638195.8,286046997.1,N
1545638215.6,286046999.5,N
1545638235.4,286046997.0,N
1545638255.3,286046998.8,N
1545638275.1,286046999.3,N
1545638295.9,286046998.6,N
1545638315.7,286046999.0,N
1545638335.5,286046999.2,N
1545638355.4,286046999.3,N
1545638375.2,286046999.5,N
1545638395.0,286046998.5,N
1545638396.0,286046998.5,N
